Regional Weather Roundup
Issued by NWS Cleveland, OH

Home | Current Version | Previous Version | Text Only | Print | Product List | Glossary Off
Versions: 1 2 3 4 5 6 7 8 9 10 11 12 13 14 15 16 17 18 19 20 21 22 23 24 25 26 27 28 29 30 31 32 33 34 35 36 37 38 39 40 41 42 43 44 45 46 47 48 49 50

000
ASUS41 KCLE 230000
RWRCLE
OHIO REGIONAL WEATHER ROUNDUP
NATIONAL WEATHER SERVICE WILMINGTON, OH
700 PM EST MON DEC 22 2014

NOTE: "FAIR" INDICATES FEW OR NO CLOUDS BELOW 12,000 FEET WITH NO
SIGNIFICANT WEATHER AND/OR OBSTRUCTIONS TO VISIBILITY.

OHZ001>008-015>018-024>027-034-035-043-044-230100-
   NORTHWEST OHIO

CITY           SKY/WX    TMP DP  RH WIND       PRES   REMARKS
DEFIANCE       CLOUDY    37  31  78 E10       29.85F
FINDLAY        CLOUDY    40  33  76 E10       29.85F
TOLEDO EXPRESS CLOUDY    35  30  82 E9        29.88F WCI  28
TOLEDO METCALF CLOUDY    36  30  79 NE7       29.90F
LIMA           CLOUDY    42  34  73 E12       29.83F
$$

OHZ009>014-019>023-028>033-038-089-230100-
   NORTHEAST OHIO

CITY           SKY/WX    TMP DP  RH WIND       PRES   REMARKS
CLE-HOPKINS    MOCLDY    39  30  70 SE10      29.95F
CLE-LAKEFRONT  MOCLDY    41  30  65 SE10      29.93F
CUY CO. ARPT   MOCLDY    39  32  75 SE12      29.93F
LORAIN-ELYRIA  PTCLDY    37  31  78 SE9       29.91F
ASHTABULA      MOCLDY    35  27  72 SE10      29.98F WCI  27
AKRON-CANTON   MOCLDY    38  30  73 E8        29.93S
WOOSTER        NOT AVBL
MANSFIELD      MOCLDY    39  33  79 E10       29.88S
YOUNGSTOWN     MOCLDY    36  28  73 E13       29.95F
$$

OHZ042-051>053-060>062-070>072-077>081-230100-
  SOUTHWEST OHIO

CITY           SKY/WX    TMP DP  RH WIND       PRES   REMARKS
CINC-COVINGTON CLOUDY    48  37  65 SE8       29.78S
CINC-LUNKEN    CLOUDY    48  38  68 CALM      29.81R
HAMILTON       CLOUDY    48  38  68 SE3       29.81R
DAYTON         NOT AVBL
WRIGHT-PAT AFB CLOUDY    45  37  73 E8        29.81F
DAYTON GENERAL CLOUDY    46  37  71 E12       29.79F
WILMINGTON     CLOUDY    43  35  73 E12       29.81F
$$

OHZ036-037-039>041-045>050-054>059-063>069-073>076-082>088-230100-
  CENTRAL AND SOUTHEAST OHIO

CITY           SKY/WX    TMP DP  RH WIND       PRES   REMARKS
COLUMBUS       CLOUDY    46  34  62 E10       29.85S
OSU AIRPORT    CLOUDY    45  35  68 E7        29.85S
BOLTON FIELD   NOT AVBL
RICKENBACK AFB NOT AVBL
NEWARK         CLOUDY    44  34  67 NE5       29.87S
MARION         CLOUDY    41  33  73 SE5       29.87S
LANCASTER      CLOUDY    52  36  54 E3        29.87R
ZANESVILLE     CLOUDY    47  33  58 E7        29.87F
NEW PHILLY     CLOUDY    43  32  65 E7        29.92S
$$



USA.gov is the U.S. government's official web portal to all federal, state and local government web resources and services.